Temp
75 77 80 80 80 80 80 80 79 79 79 79 80 79 79 79 79 79 80 79 79 80 81 81 81 81 80 80 79 79 79 79 79 78 78 77 77 77 77 77 76 75 76
78 77 80 80 80 80 80 80 79 79 79 79 79 79 79 79 79 79 79 79 80 81 81 81 81 81 80 80 80 79 79 79 78 78 78 78 78 77 77 77 77 75 76
78 78 79 79 80 80 79 79 79 78 79 79 79 79 79 79 79 79 79 79 80 81 81 81 81 81 81 80 80 79 79 78 78 77 77 71 72 77 77 76 77 77 76
78 77 78 79 79 79 79 79 78 78 78 79 79 79 79 79 79 79 79 80 80 81 81 81 81 81 81 80 80 79 78 78 78 76 70 71 75 77 77 77 76 75 75
77 76 77 79 79 79 79 79 78 78 78 79 79 79 79 79 79 79 79 79 80 81 81 81 81 80 80 80 79 79 79 78 77 73 67 66 68 75 76 75 75 76 76
75 76 79 79 79 79 79 79 78 79 79 79 79 79 79 79 78 78 79 79 80 80 80 80 80 80 80 79 79 79 78 77 74 69 68 71 67 76 75 75 75 75 74
75 76 78 79 79 79 79 79 79 79 78 79 79 79 79 78 78 78 79 79 80 80 80 79 79 79 79 79 78 78 77 76 68 66 67 67 68 75 75 75 74 74 74
75 77 77 79 79 79 79 79 78 78 78 78 78 78 78 78 78 78 78 79 79 79 79 79 78 78 78 78 78 78 77 77 72 68 67 66 73 75 75 74 74 74 73
77 76 76 77 78 79 78 78 78 78 78 78 78 78 78 78 78 78 78 78 78 78 78 78 78 78 77 77 77 77 77 76 66 68 71 67 75 75 75 74 74 73 73
75 75 76 75 76 76 77 78 78 78 78 77 78 78 78 78 78 78 77 77 78 78 78 78 77 77 77 77 77 77 77 76 66 67 68 68 75 75 75 74 74 73 73
75 73 75 76 75 75 75 77 78 79 78 78 77 78 76 72 73 75 76 77 78 78 78 77 77 77 77 77 77 77 77 68 67 67 67 75 75 75 75 74 73 73 72
71 71 73 76 76 76 78 76 75 76 76 75 75 74 72 71 71 75 75 77 78 78 77 77 77 77 77 73 73 77 70 68 67 67 67 76 76 76 75 74 73 73 73
73 74 73 74 75 74 77 75 74 74 74 73 74 73 71 72 71 71 70 72 71 76 71 73 74 74 73 72 71 70 70 68 67 68 71 76 76 76 75 74 73 73 72
73 73 73 72 72 72 72 74 73 74 73 73 73 72 70 68 68 68 68 68 70 70 68 69 70 71 72 72 71 70 70 69 68 68 69 76 76 76 75 74 74 73 72
74 73 73 72 72 70 71 71 72 72 72 71 71 71 70 68 68 69 69 69 69 69 68 67 67 69 70 71 71 71 71 70 68 66 66 76 75 76 76 75 74 73 72
76 75 74 73 73 73 72 69 71 69 69 70 70 71 70 68 68 67 68 69 68 69 69 68 67 67 67 69 70 71 70 68 67 66 66 70 75 75 75 75 74 74 73
77 77 74 75 74 73 71 70 68 69 70 69 70 69 70 68 67 69 68 68 69 68 68 68 68 68 68 70 69 69 70 68 66 67 66 66 70 74 75 75 75 74 74
75 75 76 79 74 72 72 71 71 71 70 69 68 68 69 67 67 67 68 68 69 68 67 67 67 67 66 65 65 66 69 67 67 66 66 66 66 68 74 75 75 75 74
74 75 73 75 72 71 70 71 70 70 69 70 68 67 67 68 68 67 67 68 69 68 68 68 66 67 66 65 66 65 67 66 66 66 65 66 66 66 65 72 75 74 74
73 74 75 75 73 72 69 68 69 69 68 67 67 66 66 67 69 66 65 66 67 68 68 68 67 67 67 66 70 68 67 68 66 66 66 67 66 67 66 65 67 69 74
69 72 74 74 73 73 70 68 68 69 67 65 65 68 67 67 68 65 63 64 67 68 68 67 66 66 65 65 63 62 65 66 65 66 66 65 65 67 66 65 64 66 69
69 70 73 75 73 75 76 75 71 71 67 67 66 66 67 68 67 66 65 65 67 66 67 68 67 64 63 63 62 60 58 61 65 64 65 65 66 66 66 66 66 66 66
69 69 72 75 74 76 76 67 64 66 65 63 63 64 66 67 68 67 67 66 67 67 66 66 65 64 61 62 62 59 56 55 56 59 62 64 64 64 65 65 66 66 66
71 72 73 75 74 76 72 72 70 71 65 64 66 69 65 66 67 68 68 68 68 67 66 66 66 65 64 62 62 62 61 60 57 56 60 62 63 64 64 64 64 65 65
74 71 71 73 74 75 71 73 72 70 73 66 66 65 63 63 66 69 69 68 67 66 66 66 66 66 65 63 62 60 59 59 58 57 56 58 61 63 64 64 64 64 64
71 71 70 71 72 73 71 72 72 71 65 65 64 64 64 64 66 68 70 67 67 66 66 66 66 66 65 64 63 62 62 60 59 59 59 57 58 60 65 66 64 64 64
MSLP
1010.76 1011.16 1011.58 1011.87 1011.46 1011.37 1011.80 1012.30 1012.61 1012.90 1013.17 1013.31 1013.41 1013.68 1013.86 1013.86 1014.05 1014.20 1014.28 1014.46 1014.60 1014.65 1014.73 1014.82 1014.91 1014.98 1015.15 1015.34 1015.57 1015.78 1015.82 1015.87 1015.99 1016.20 1016.45 1016.56 1016.53 1016.60 1016.75 1016.91 1017.06 1016.92 1016.77
1009.37 1010.83 1011.50 1012.10 1012.18 1011.80 1012.18 1012.61 1012.91 1013.23 1013.44 1013.82 1013.88 1014.06 1014.30 1014.36 1014.43 1014.74 1014.84 1014.85 1014.92 1014.98 1015.09 1015.17 1015.26 1015.37 1015.53 1015.73 1015.85 1015.98 1016.06 1016.14 1016.25 1016.37 1016.56 1016.69 1016.80 1016.90 1016.99 1017.07 1017.19 1017.33 1017.15
1008.97 1010.53 1011.35 1011.77 1012.10 1012.22 1012.63 1013.16 1013.51 1013.69 1013.81 1014.17 1014.32 1014.44 1014.75 1014.96 1014.96 1015.15 1015.42 1015.45 1015.46 1015.46 1015.46 1015.56 1015.58 1015.66 1015.78 1015.91 1016.09 1016.27 1016.34 1016.44 1016.48 1016.66 1016.89 1017.16 1017.12 1017.08 1017.11 1017.17 1017.21 1017.41 1017.41
1009.37 1010.39 1011.40 1011.99 1012.29 1012.35 1012.82 1013.27 1013.85 1014.17 1014.17 1014.33 1014.55 1014.59 1014.77 1015.16 1015.25 1015.34 1015.53 1015.65 1015.76 1015.85 1015.84 1015.89 1015.87 1015.89 1015.94 1016.11 1016.21 1016.38 1016.57 1016.62 1016.72 1016.91 1017.20 1017.27 1017.24 1017.31 1017.18 1017.23 1017.45 1017.64 1017.61
1010.06 1010.64 1011.50 1012.08 1012.50 1012.77 1013.22 1013.57 1013.93 1014.32 1014.42 1014.52 1014.67 1014.91 1014.98 1015.15 1015.41 1015.53 1015.58 1015.66 1015.75 1015.89 1015.85 1015.97 1016.10 1016.14 1016.28 1016.35 1016.40 1016.44 1016.54 1016.74 1017.00 1017.23 1017.47 1017.57 1017.59 1017.54 1017.47 1017.59 1017.71 1017.73 1017.92
1010.07 1010.73 1011.41 1011.75 1012.09 1012.62 1013.41 1013.66 1014.10 1014.35 1014.40 1014.57 1014.78 1014.93 1015.02 1015.21 1015.36 1015.59 1015.76 1015.82 1015.87 1015.99 1016.10 1016.08 1016.21 1016.31 1016.52 1016.77 1016.82 1016.78 1016.92 1017.12 1017.41 1017.51 1017.53 1017.55 1017.67 1017.66 1017.74 1017.77 1017.78 1017.91 1018.12
1010.28 1010.74 1011.43 1012.04 1012.22 1012.55 1012.85 1013.57 1014.28 1014.46 1014.47 1014.61 1014.99 1015.20 1015.24 1015.25 1015.46 1015.62 1015.70 1015.79 1015.98 1016.16 1016.26 1016.33 1016.41 1016.53 1016.64 1016.79 1016.87 1017.01 1017.25 1017.54 1017.78 1017.83 1017.87 1017.88 1017.84 1017.92 1018.07 1018.05 1018.04 1018.10 1018.28
1010.43 1010.75 1011.31 1011.76 1012.18 1012.63 1013.06 1013.49 1013.99 1014.44 1014.46 1014.45 1014.61 1014.97 1015.23 1015.37 1015.40 1015.55 1015.62 1015.70 1015.85 1016.06 1016.17 1016.23 1016.32 1016.60 1016.82 1016.94 1017.04 1017.09 1017.25 1017.47 1017.80 1017.96 1018.09 1018.13 1018.01 1018.15 1018.29 1018.44 1018.34 1018.40 1018.46
1010.47 1010.81 1010.76 1011.33 1011.91 1012.56 1013.24 1013.49 1013.89 1014.18 1014.52 1014.81 1014.75 1014.94 1015.22 1015.45 1015.59 1015.63 1015.72 1015.84 1016.01 1016.17 1016.35 1016.32 1016.36 1016.50 1016.72 1016.83 1016.91 1016.97 1017.29 1017.47 1017.83 1017.96 1018.10 1018.28 1018.14 1018.31 1018.45 1018.59 1018.67 1018.68 1018.80
1010.66 1011.23 1011.02 1011.25 1011.88 1012.72 1013.23 1013.53 1013.86 1014.02 1014.48 1014.88 1014.92 1015.13 1015.39 1015.47 1015.58 1015.79 1016.02 1016.06 1016.04 1016.14 1016.34 1016.43 1016.43 1016.61 1016.78 1017.01 1017.08 1017.21 1017.38 1017.53 1017.90 1018.08 1018.14 1018.24 1018.20 1018.32 1018.54 1018.74 1018.82 1018.89 1018.96
1011.14 1011.69 1011.66 1011.51 1011.93 1012.43 1013.21 1013.34 1013.45 1013.82 1014.25 1014.54 1014.77 1015.10 1015.27 1015.33 1015.38 1015.64 1015.90 1016.10 1016.15 1016.14 1016.30 1016.52 1016.64 1016.79 1016.95 1017.08 1017.15 1017.13 1017.38 1017.74 1017.96 1018.16 1018.28 1018.22 1018.41 1018.41 1018.58 1018.87 1019.03 1019.06 1019.10
1010.80 1011.61 1012.17 1012.16 1012.14 1012.48 1012.78 1013.27 1013.26 1013.67 1013.95 1014.19 1014.47 1014.75 1015.19 1015.33 1015.44 1015.61 1015.79 1015.83 1015.95 1016.08 1016.27 1016.36 1016.46 1016.62 1016.88 1017.26 1017.43 1017.35 1017.58 1017.80 1018.02 1018.30 1018.41 1018.27 1018.37 1018.51 1018.75 1018.96 1019.19 1019.29 1019.40
1010.26 1011.28 1011.73 1012.28 1012.26 1012.43 1012.37 1013.11 1013.35 1013.77 1013.98 1014.34 1014.31 1014.45 1014.90 1015.03 1015.21 1015.35 1015.85 1015.91 1015.95 1015.96 1016.28 1016.29 1016.36 1016.43 1016.69 1016.98 1017.35 1017.56 1017.62 1017.68 1017.85 1018.19 1018.40 1018.38 1018.47 1018.60 1018.72 1018.98 1019.15 1019.40 1019.50
1010.28 1010.59 1011.21 1011.85 1012.21 1012.55 1012.54 1012.79 1013.22 1013.60 1013.89 1014.25 1014.40 1014.47 1014.79 1015.29 1015.21 1015.24 1015.62 1015.85 1015.90 1015.88 1016.28 1016.54 1016.73 1016.67 1016.75 1016.90 1017.15 1017.44 1017.45 1017.60 1017.71 1017.93 1018.22 1018.40 1018.59 1018.61 1018.75 1018.86 1019.12 1019.46 1019.56
1010.09 1010.40 1010.88 1011.15 1011.80 1012.50 1012.66 1012.93 1013.33 1013.46 1013.71 1014.08 1014.31 1014.29 1014.53 1014.95 1015.00 1015.18 1015.48 1015.62 1015.76 1015.87 1016.16 1016.49 1016.72 1016.99 1017.00 1017.10 1017.11 1017.38 1017.37 1017.39 1017.82 1017.90 1018.05 1017.90 1018.28 1018.57 1018.77 1018.93 1019.17 1019.33 1019.51
1009.64 1009.92 1010.20 1010.61 1011.25 1011.89 1012.22 1012.68 1013.20 1013.58 1013.62 1014.02 1014.05 1013.94 1014.25 1014.55 1014.84 1015.17 1015.33 1015.43 1015.62 1015.79 1016.11 1016.48 1016.76 1017.01 1017.17 1017.18 1017.05 1017.05 1017.00 1017.00 1017.18 1017.54 1017.99 1017.90 1018.24 1018.64 1018.82 1018.97 1018.98 1019.31 1019.50
1008.83 1009.19 1009.85 1010.55 1011.28 1011.82 1012.21 1012.49 1013.11 1013.25 1013.39 1013.74 1013.86 1013.81 1013.95 1014.20 1014.55 1014.92 1015.05 1015.21 1015.36 1015.74 1016.04 1016.27 1016.54 1016.58 1016.80 1016.85 1016.95 1016.96 1016.86 1017.18 1017.55 1017.68 1017.62 1018.05 1018.32 1018.55 1018.67 1018.88 1018.92 1019.12 1019.28
1008.72 1008.76 1009.41 1010.10 1010.94 1011.43 1011.88 1012.42 1012.64 1012.88 1013.07 1013.36 1013.50 1013.51 1013.62 1014.02 1014.44 1014.61 1014.94 1015.31 1015.19 1015.47 1015.74 1016.06 1016.49 1016.78 1016.71 1017.09 1017.29 1017.28 1017.10 1017.11 1017.25 1017.56 1017.93 1018.02 1018.31 1018.51 1018.48 1018.56 1018.76 1018.94 1019.03
1008.04 1008.48 1009.32 1010.14 1010.55 1010.99 1011.63 1012.02 1012.26 1012.50 1012.72 1012.98 1013.17 1013.29 1013.57 1013.99 1014.28 1014.50 1015.09 1015.17 1015.18 1015.29 1015.57 1015.83 1016.21 1016.52 1016.59 1016.92 1016.89 1016.90 1016.97 1017.03 1016.91 1017.06 1017.41 1017.41 1017.94 1018.33 1018.58 1018.60 1018.74 1018.87 1018.96
1007.61 1007.90 1008.32 1009.26 1010.10 1010.77 1011.31 1011.78 1012.18 1012.41 1012.68 1012.87 1012.93 1013.11 1013.43 1013.86 1014.14 1014.63 1015.03 1015.14 1015.09 1015.22 1015.37 1015.79 1016.19 1016.29 1016.40 1016.55 1016.82 1017.03 1016.82 1016.60 1017.00 1016.86 1017.32 1017.63 1017.95 1017.87 1018.14 1018.33 1018.58 1018.75 1018.80
1007.42 1007.78 1007.81 1008.51 1009.30 1010.00 1010.79 1011.57 1012.03 1012.42 1012.73 1012.99 1012.97 1012.91 1013.17 1013.54 1013.95 1014.40 1014.87 1015.08 1014.90 1015.11 1015.35 1015.74 1015.97 1016.23 1016.58 1016.73 1017.40 1017.28 1016.98 1016.94 1017.02 1017.09 1017.08 1017.45 1017.72 1017.90 1017.85 1018.07 1018.16 1018.48 1018.61
1006.73 1007.12 1007.41 1007.70 1008.35 1009.07 1009.76 1010.04 1010.79 1011.50 1012.16 1012.56 1012.68 1012.87 1012.98 1013.31 1013.65 1014.16 1014.50 1014.62 1014.80 1015.07 1015.37 1015.57 1015.79 1016.49 1016.77 1016.77 1017.07 1017.55 1017.50 1017.17 1017.03 1017.03 1017.12 1017.39 1017.36 1017.30 1017.40 1017.61 1017.89 1018.15 1018.23
1006.55 1006.76 1006.63 1006.81 1007.37 1008.18 1008.86 1010.21 1010.99 1011.82 1012.47 1012.87 1012.95 1012.94 1012.76 1013.02 1013.34 1013.65 1013.94 1014.21 1014.49 1014.84 1015.09 1015.27 1015.54 1015.84 1016.51 1016.86 1016.89 1017.38 1017.93 1018.20 1017.96 1017.28 1017.04 1017.05 1017.22 1017.18 1017.02 1017.26 1017.37 1017.41 1017.89
1005.07 1005.40 1006.05 1006.37 1006.86 1007.60 1008.56 1009.58 1010.14 1010.56 1011.70 1011.79 1011.64 1011.94 1012.17 1012.40 1012.83 1013.02 1013.36 1013.63 1014.05 1014.40 1014.71 1014.96 1015.36 1015.70 1016.05 1016.80 1017.08 1017.15 1017.38 1017.67 1018.15 1018.21 1017.38 1016.96 1016.78 1016.68 1016.48 1016.61 1016.80 1017.08 1017.43
1004.25 1004.61 1005.27 1005.96 1006.31 1006.98 1008.02 1008.63 1009.35 1010.06 1010.32 1010.40 1011.08 1011.74 1012.16 1012.27 1012.60 1012.70 1012.94 1013.27 1013.74 1014.02 1014.39 1014.82 1015.23 1015.55 1015.88 1016.37 1016.76 1017.23 1017.53 1017.76 1017.93 1018.26 1018.25 1017.58 1016.99 1016.49 1016.31 1016.38 1016.49 1016.77 1017.05
1003.91 1004.56 1004.94 1005.64 1006.00 1006.59 1007.38 1008.00 1008.68 1009.23 1009.83 1010.48 1011.07 1011.70 1012.14 1012.21 1012.39 1012.71 1012.81 1013.11 1013.31 1013.76 1014.18 1014.57 1014.99 1015.43 1015.70 1015.98 1016.30 1016.77 1017.19 1017.60 1017.82 1018.11 1018.24 1017.88 1017.51 1016.72 1016.35 1016.25 1016.41 1016.41 1016.40
Wind_Speed
5 6 7 8 14 17 17 16 17 16 15 15 16 16 15 16 15 15 14 13 12 12 12 14 16 17 18 19 19 18 17 17 17 15 14 14 15 14 14 13 12 7 13
16 8 10 8 9 15 15 15 16 14 14 14 15 15 14 14 14 12 12 12 11 12 12 14 15 16 17 17 17 17 16 16 16 15 15 14 14 13 14 13 13 10 11
17 11 10 13 13 15 14 13 12 12 13 13 13 13 12 12 12 11 10 9 10 11 11 12 14 15 15 16 16 15 15 15 15 15 15 5 6 12 12 13 11 13 11
14 11 8 11 12 16 15 14 12 12 12 12 12 13 13 11 11 11 10 9 9 9 9 10 12 13 14 14 14 14 15 13 13 12 5 4 7 12 11 13 12 9 9
11 10 9 12 12 14 14 13 13 12 11 12 12 11 12 11 9 9 9 9 9 8 8 8 9 10 11 12 12 12 9 13 13 10 6 5 4 9 11 12 11 10 12
12 9 11 15 15 16 14 14 12 12 12 12 12 12 12 12 10 8 8 7 7 7 6 6 6 9 11 10 9 9 12 13 12 5 5 7 4 10 11 11 10 12 11
12 9 11 13 14 15 17 15 12 12 11 11 11 11 11 11 10 9 8 8 7 6 5 5 6 8 9 9 9 13 13 12 6 5 5 5 5 10 10 11 11 11 10
12 13 12 15 15 15 15 14 13 12 12 13 13 12 11 10 10 9 9 8 8 7 6 5 5 7 8 8 7 11 14 13 8 5 5 4 9 11 11 10 10 12 11
12 12 11 12 13 14 13 14 14 13 11 10 10 11 11 10 8 8 8 7 6 5 4 4 5 6 8 8 7 11 12 13 6 4 6 3 11 10 10 10 10 11 11
10 8 12 11 11 10 10 15 14 13 11 10 10 9 9 9 9 7 7 7 7 6 5 4 4 5 6 7 7 9 13 13 5 5 3 3 11 11 10 10 10 10 10
7 2 7 11 10 10 7 11 14 16 14 12 11 11 9 5 6 7 7 7 7 7 6 5 4 4 4 5 7 7 14 3 4 3 3 11 11 11 10 10 10 10 10
9 6 5 10 12 11 9 9 8 9 8 8 8 7 5 5 5 6 7 9 9 8 7 7 7 7 6 2 2 6 3 4 3 3 2 12 11 11 10 10 9 9 9
10 9 9 9 10 10 9 6 4 4 4 5 9 8 6 5 4 4 3 3 3 7 3 5 4 3 5 4 3 3 4 5 3 3 4 12 12 11 11 10 10 9 8
13 12 12 10 9 7 4 7 6 7 5 5 6 7 5 3 4 3 3 4 4 3 4 3 2 3 4 3 4 5 5 5 3 3 4 12 11 12 12 12 10 9 7
11 12 12 11 11 7 6 5 5 6 6 5 5 7 5 4 5 4 4 4 4 3 4 4 3 3 3 4 3 4 5 5 4 3 3 16 13 13 12 12 10 10 8
9 13 11 13 12 10 8 7 7 5 4 4 5 6 7 5 4 4 3 4 4 4 3 3 4 4 3 3 4 4 5 5 6 7 2 5 13 12 12 11 12 9 8
13 13 13 13 11 11 9 8 6 6 5 6 7 6 7 6 5 6 5 4 4 3 3 3 4 4 4 4 5 6 4 4 2 6 6 3 5 12 13 13 12 11 10
10 14 13 12 13 12 10 8 6 6 5 5 5 4 6 5 6 5 3 3 4 4 3 3 3 3 2 2 3 4 3 3 4 4 4 4 3 4 11 14 13 13 12
15 14 12 13 14 13 7 5 6 6 4 5 4 4 5 6 6 4 3 4 4 3 4 3 2 3 3 3 3 4 3 3 5 4 6 7 5 4 3 9 13 12 12
13 15 17 14 13 11 5 4 3 3 2 2 4 4 6 6 6 5 4 4 4 2 2 2 3 1 2 3 2 2 2 4 4 5 6 4 5 7 5 5 5 5 12
8 11 17 17 13 11 6 5 3 5 4 3 4 6 6 5 6 6 4 5 4 4 4 3 2 3 2 1 3 3 2 1 3 2 3 4 4 6 5 7 4 3 5
17 16 14 18 15 13 11 9 5 6 3 2 2 4 5 4 6 6 6 5 5 4 4 4 4 3 2 0 3 3 4 4 2 3 2 4 7 4 7 8 6 5 4
15 17 17 19 18 17 15 6 4 5 4 1 2 3 6 6 6 7 7 5 5 4 4 4 4 4 3 2 2 4 2 2 2 3 3 3 4 4 6 7 8 8 7
21 18 17 17 18 16 13 13 15 12 7 6 6 6 4 6 6 6 7 6 6 4 5 4 4 3 4 3 1 0 2 3 2 4 3 3 3 6 7 6 6 7 8
15 18 17 16 17 16 15 16 13 11 10 4 4 6 5 5 6 5 6 6 6 4 4 6 4 4 3 3 3 2 1 1 1 2 3 4 3 3 3 4 5 6 7
9 13 16 18 17 15 15 13 15 16 9 6 5 5 5 4 5 6 7 6 6 6 6 6 6 6 5 4 3 3 3 3 3 3 3 4 4 4 3 3 5 5 6
Wind_Direction
181 147 166 167 136 121 117 110 107 106 106 109 111 112 114 115 116 117 120 120 119 119 117 115 111 111 113 112 111 107 100 96 95 94 91 87 85 88 80 79 80 65 78
129 136 155 160 139 120 119 119 116 113 111 114 114 113 111 110 110 111 115 116 117 118 117 117 114 116 117 115 113 108 105 99 96 94 94 89 92 86 82 81 71 77 79
126 141 159 161 148 128 122 117 112 108 105 103 101 101 99 101 104 103 100 102 109 115 117 118 117 120 122 121 119 113 107 102 100 100 101 95 80 83 80 86 79 74 65
129 135 147 154 145 135 132 127 120 117 111 108 109 112 112 108 109 107 107 105 109 113 115 120 122 122 127 128 127 124 117 111 107 101 78 64 86 86 80 71 73 71 64
126 131 145 149 141 132 133 129 129 129 124 121 122 120 120 118 112 112 115 116 120 120 121 122 124 116 120 124 133 141 143 113 108 98 87 81 83 94 87 80 73 67 63
133 130 157 152 144 141 145 144 143 143 140 137 138 136 134 131 125 122 119 117 123 123 122 118 113 114 115 114 114 124 129 115 109 106 101 101 99 97 89 88 84 75 73
142 136 151 152 145 148 152 154 157 155 146 139 140 143 142 140 137 136 132 129 130 127 126 125 114 116 118 118 113 128 131 125 114 108 105 106 96 97 93 89 85 82 78
142 148 155 155 153 153 157 157 159 161 159 157 155 153 153 154 152 149 146 146 145 147 150 151 148 135 130 124 122 140 136 135 127 122 118 118 115 105 100 90 89 80 77
149 160 152 154 154 154 160 161 165 164 165 165 156 155 159 162 161 160 156 152 150 147 153 165 179 162 147 137 134 129 148 142 138 139 139 153 126 118 106 100 91 88 83
146 167 155 146 148 158 168 169 169 164 168 172 168 166 167 166 169 173 171 169 165 167 172 182 172 170 156 139 147 147 149 152 145 153 146 165 139 130 117 111 102 95 88
126 149 158 153 161 158 170 173 169 175 176 174 172 178 177 177 179 183 183 191 186 182 179 190 205 207 192 163 164 146 160 143 153 162 156 162 152 141 128 118 111 104 98
159 148 168 170 166 167 170 183 170 177 181 178 176 179 180 183 180 187 196 197 194 195 195 196 203 211 213 176 193 166 150 157 160 157 186 171 165 154 140 129 121 110 99
162 161 166 177 179 175 172 175 173 174 176 189 188 179 188 184 183 178 202 219 199 208 210 208 209 203 202 185 170 187 168 167 163 168 196 183 178 168 154 143 134 122 109
172 169 166 172 179 198 155 177 175 184 189 194 202 178 169 184 192 194 201 207 203 197 199 212 240 253 245 221 170 184 192 191 179 165 191 192 193 183 169 156 148 137 124
181 172 181 169 182 187 157 166 180 194 188 192 191 188 174 185 188 186 214 203 212 186 199 203 199 228 250 254 233 189 215 200 192 178 189 194 196 194 182 170 161 156 145
184 190 169 180 187 184 183 175 190 194 171 190 206 200 182 185 184 195 208 215 211 198 196 196 204 218 259 275 272 238 211 211 179 180 189 203 197 201 197 188 173 175 166
199 174 177 182 185 186 191 180 184 194 182 199 212 201 191 187 175 196 214 217 209 179 193 211 224 199 209 236 234 242 216 228 207 194 187 176 199 205 206 202 191 191 186
180 184 176 184 188 188 184 181 184 187 183 197 207 198 191 184 179 197 208 219 196 188 215 201 193 246 205 225 260 294 247 189 181 188 174 170 204 212 213 212 206 205 202
186 176 167 184 183 185 179 171 169 178 177 208 190 202 180 165 182 171 192 211 166 175 199 210 182 188 176 219 225 219 219 195 193 162 189 188 194 209 225 235 218 220 215
193 184 176 175 183 183 150 124 118 125 201 216 211 208 184 190 184 180 193 206 194 145 131 138 159 103 146 157 74 44 243 176 220 180 199 201 216 205 207 205 230 224 219
203 200 183 177 184 166 162 157 150 198 194 225 218 220 218 199 177 180 193 186 177 180 189 179 109 83 7 117 163 211 188 208 256 205 181 186 209 221 200 213 206 201 225
193 201 186 190 174 181 183 187 169 171 181 199 209 237 236 195 173 175 188 192 183 161 174 154 153 157 150 24 104 50 355 343 329 221 196 204 218 193 221 220 195 196 193
189 197 194 193 179 180 182 123 84 78 51 69 223 234 228 198 191 190 194 194 194 177 173 159 141 125 123 44 108 138 67 263 326 340 277 246 205 209 225 215 201 190 182
205 195 196 188 182 182 160 169 175 176 170 206 187 207 202 204 207 206 193 196 193 176 167 149 155 138 123 144 64 128 98 144 164 338 320 312 251 243 212 200 197 191 179
196 187 186 189 182 180 177 176 174 181 194 169 151 180 195 215 205 213 212 197 190 177 174 164 156 162 162 141 160 143 89 22 96 137 273 315 315 258 238 200 182 188 188
191 183 177 182 187 183 182 180 183 183 174 155 159 179 199 204 210 213 207 197 193 182 176 180 177 173 182 165 155 154 162 173 192 172 230 268 251 296 301 215 195 203 189